Regional Weather Roundup
Issued by NWS

Home | Current Version | Previous Version | Text Only | Print | Product List | Glossary Off
Versions: 1 2 3 4 5 6 7 8 9 10 11 12 13 14 15 16 17 18 19 20 21 22 23 24 25 26 27

000
ASUS45 KSLC 270310
RWRUT

UTAH REGIONAL WEATHER ROUNDUP
NATIONAL WEATHER SERVICE SALT LAKE CITY UT
900 PM MDT WED APR 26 2017

UTZ001>011-023>025-270400-

NORTHERN UTAH

CITY           SKY/WX    TMP DP  RH WIND       PRES   REMARKS
BRIGHAM CITY   CLOUDY    47  40  75 S5        29.74S
HILL AFB       CLOUDY    43  39  85 SE3       29.73F
LOGAN          LGT RAIN  47  39  74 CALM      29.72S
OGDEN          CLOUDY    45  40  82 CALM      29.73F
SALT LAKE CITY CLOUDY    48  45  89 CALM      29.74S
TOOELE VALLEY  MOCLDY    43  43 100 S6        29.74F
WENDOVER       CLOUDY    50  41  71 W8        29.73F
HEBER CITY     MIX PCPN  43  39  87 NW5       29.73S
WEST JORDAN    CLOUDY    48  48 100 CALM      29.75S

$$

UTZ011>015-024>027-270400-

CENTRAL/NORTHEAST UTAH

CITY           SKY/WX    TMP DP  RH WIND       PRES   REMARKS
PROVO AIRPORT  LGT RAIN  46  42  86 N5        29.75S
MOAB/CANYONLAN CLOUDY    59  25  27 E3        29.66F
DELTA          MOCLDY    45  43  93 E5        29.75R
PRICE          LGT RAIN  44  37  76 VRB3      29.74F
ROOSEVELT      RAIN      46  37  71 W12       29.76R
VERNAL         CLOUDY    49  32  52 W15       29.71F

$$

UTZ013>016-019>022-027-270400-

SOUTHERN UTAH

CITY           SKY/WX    TMP DP  RH WIND       PRES   REMARKS
BRYCE CANYON   LGT RAIN  47  29  49 W14G31    29.81S
CEDAR CITY     MOCLDY    55  28  35 S18G24    29.75R
MILFORD        MOCLDY    54  42  64 SE6       29.71S
ST GEORGE      CLOUDY    72  34  24 CALM      29.65F
HANKSVILLE     CLOUDY    61  28  29 NW15G24   29.68S
BLANDING       MOCLDY    53  21  28 SW3       29.82S

$$

REGIONAL REPORTS     COLORADO/ARIZONA

CITY           SKY/WX    TMP DP  RH WIND       PRES   REMARKS
CRAIG, CO      CLOUDY    45  32  60 W6        29.74S
GRAND JUNCTION CLOUDY    55  28  35 W22G32    29.74R
RIFLE, CO      CLOUDY    47  35  63 CALM      29.77S
MONTROSE, CO   CLOUDY    52  26  36 W7        29.79R
CORTEZ, CO     CLOUDY    54  26  34 SW13      29.81R
COLORADO CITY    N/A     61  30  31 N3        29.79S
PAGE, AZ       PTCLDY    67  31  26 VRB3      29.69F
GRAND CANYON   MOCLDY    56  25  30 SW16G24   29.87F
KINGMAN, AZ    CLEAR     71  31  22 SW23G31   29.76F
FLAGSTAFF, AZ  PTCLDY    54  23  30 SW13G21   29.93R

$$

REGIONAL REPORTS    NEVADA/IDAHO/WYOMING

CITY           SKY/WX    TMP DP  RH WIND       PRES   REMARKS
LAS VEGAS, NV  PTCLDY    80  32  17 SW12G21   29.62F
ELY, NY        MOCLDY    45  38  76 CALM      29.82R
ELKO, NV       CLOUDY    44  36  73 CALM      29.80R
POCATELLO, ID  CLOUDY    43  39  86 S9        29.69F
BURLEY, ID     PTCLDY    45  39  79 W9        29.70R
FORT BRIDGER,  CLOUDY    37  37 100 SW12      29.75F WCI  29
EVANSTON, WY   FOG       33  33 100 SW13      29.73F VSB 1/4 WCI  24
ROCK SPRINGS,  CLOUDY    40  28  62 W12       29.71F WCI  33
KEMMERER, WY   FLURRIES  34  32  93 SW13      29.72S WCI  25

$$




USA.gov is the U.S. government's official web portal to all federal, state and local government web resources and services.